Berthoud Pass, CO

5:56 PM MDT on April 27, 2017 (GMT -0600)
Berthoud Pass

Weather History for K0CO - October, 2013

Change the Weather History Date:

Sunday, October 13, 2013

  Actual Average (KBJC) Record (KBJC)
Temperature  
Mean Temperature 30 °F -  
Max Temperature 35 °F 65 °F 84 °F (1992)
Min Temperature 24 °F 40 °F 31 °F (1985)
Degree Days  
Heating Degree Days 36    
Moisture  
Dew Point 20 °F    
Average Humidity 67    
Maximum Humidity 75    
Minimum Humidity 64    
Precipitation  
Precipitation 0.00 in - - ()
Sea Level Pressure  
Sea Level Pressure 30.30 in    
Wind  
Wind Speed 15 mph (SSW)    
Max Wind Speed 24 mph    
Max Gust Speed 41 mph    
Visibility 9 miles    
Events Snow , Thunderstorm    
Averages and records for this station are not official NWS values.
T = Trace of Precipitation, MM = Missing Value Source: NWS Daily Summary

Daily Weather History Graph

Daily Weather History Graph

Search for Another Location

Airport or City:

Trip Planner

Search our weather history database for the weather conditions in past years. The results will help you decide how hot, cold, wet, or windy it might be!

Date:

Astronomy

Oct. 13, 2013 Rise Set
Actual Time 7:11 AM MDT 6:26 PM MDT
Civil Twilight 6:44 AM MDT 6:53 PM MDT
Nautical Twilight 6:13 AM MDT 7:24 PM MDT
Astronomical Twilight 5:41 AM MDT 7:55 PM MDT
Moon 3:18 PM MDT (10/13) 1:25 AM MDT (10/13)
Length of Visible Light 12h 08m
Length of Day
11h 14m
Waxing Gibbous, 70% of the Moon is Illuminated
Oct 13
Waxing Gibbous
Oct 18
Full
Oct 26
Last Quarter
Nov 3
New
Nov 9
First Quarter

Hourly Weather History & Observations

Time (MDT) Temp. Windchill Dew Point Humidity Pressure Visibility Wind Dir Wind Speed Gust Speed Precip Events Conditions
12:08 AM 24.8 °F 10.0 °F 14.0 °F 64% 30.31 in 10.0 mi WSW 21.9 mph - N/A   Clear
12:28 AM 24.8 °F 10.3 °F 14.0 °F 64% 30.31 in 10.0 mi WSW 20.7 mph - N/A   Clear
12:48 AM 24.8 °F 12.4 °F 14.0 °F 64% 30.33 in 10.0 mi WSW 15.0 mph - N/A   Clear
1:08 AM 24.8 °F 14.0 °F 14.0 °F 64% 30.33 in 10.0 mi WSW 11.5 mph 20.7 mph N/A   Clear
1:28 AM 24.8 °F 14.0 °F 14.0 °F 64% 30.33 in 10.0 mi WSW 11.5 mph - N/A   Clear
1:48 AM 24.8 °F 14.0 °F 14.0 °F 64% 30.33 in 10.0 mi WSW 11.5 mph 16.1 mph N/A   Clear
2:08 AM 24.8 °F 11.5 °F 14.0 °F 64% 30.33 in 10.0 mi West 17.3 mph 25.3 mph N/A   Clear
2:28 AM 24.8 °F 11.1 °F 14.0 °F 64% 30.32 in 10.0 mi West 18.4 mph 25.3 mph N/A   Clear
2:48 AM 26.6 °F 13.1 °F 15.8 °F 64% 30.32 in 10.0 mi West 19.6 mph 28.8 mph N/A   Clear
3:08 AM 24.8 °F 11.1 °F 14.0 °F 64% 30.32 in 10.0 mi WSW 18.4 mph 24.2 mph N/A   Clear
3:28 AM 24.8 °F 12.9 °F 14.0 °F 64% 30.32 in 10.0 mi SW 13.8 mph - N/A   Clear
3:48 AM 24.8 °F 12.4 °F 14.0 °F 64% 30.32 in 10.0 mi SW 15.0 mph - N/A   Clear
4:08 AM 24.8 °F 12.9 °F 14.0 °F 64% 30.33 in 10.0 mi SW 13.8 mph 23.0 mph N/A   Clear
4:28 AM 24.8 °F 14.6 °F 14.0 °F 64% 30.33 in 10.0 mi SSW 10.4 mph 20.7 mph N/A   Clear
4:48 AM 24.8 °F 12.9 °F 14.0 °F 64% 30.33 in 10.0 mi SW 13.8 mph 19.6 mph N/A   Clear
5:08 AM 24.8 °F 13.4 °F 14.0 °F 64% 30.33 in 10.0 mi SW 12.7 mph - N/A   Clear
5:28 AM 26.6 °F 13.8 °F 15.8 °F 64% 30.33 in 10.0 mi SW 17.3 mph 26.5 mph N/A   Clear
5:48 AM 26.6 °F 14.3 °F 17.6 °F 69% 30.33 in 10.0 mi SW 16.1 mph 20.7 mph N/A   Clear
6:08 AM 26.6 °F 14.3 °F 15.8 °F 64% 30.33 in 10.0 mi SW 16.1 mph 24.2 mph N/A   Clear
6:28 AM 26.6 °F 13.8 °F 15.8 °F 64% 30.33 in 10.0 mi SW 17.3 mph 25.3 mph N/A   Clear
6:48 AM 26.6 °F 13.4 °F 15.8 °F 64% 30.33 in 10.0 mi SW 18.4 mph 24.2 mph N/A   Clear
7:08 AM 26.6 °F 13.1 °F 15.8 °F 64% 30.33 in 10.0 mi WSW 19.6 mph - N/A   Clear
7:28 AM 26.6 °F 15.2 °F 15.8 °F 64% 30.33 in 10.0 mi SW 13.8 mph 19.6 mph N/A   Clear
7:48 AM 26.6 °F 18.2 °F 17.6 °F 69% 30.33 in 10.0 mi SSW 8.1 mph - N/A   Clear
8:08 AM 26.6 °F 20.0 °F 17.6 °F 69% 30.34 in 10.0 mi SW 5.8 mph - N/A   Clear
8:28 AM 28.4 °F 19.7 °F 17.6 °F 64% 30.34 in 10.0 mi SW 9.2 mph 18.4 mph N/A   Clear
8:48 AM 28.4 °F 21.2 °F 19.4 °F 69% 30.34 in 10.0 mi SSW 6.9 mph 16.1 mph N/A   Clear
9:08 AM 30.2 °F 23.4 °F 19.4 °F 64% 30.35 in 10.0 mi South 6.9 mph 19.6 mph N/A   Clear
9:28 AM 30.2 °F 23.4 °F 21.2 °F 69% 30.35 in 10.0 mi SSW 6.9 mph 25.3 mph N/A   Clear
9:48 AM 32.0 °F 23.6 °F 21.2 °F 64% 30.35 in 10.0 mi SE 10.4 mph - N/A   Clear
10:08 AM 32.0 °F - 21.2 °F 64% 30.35 in 10.0 mi North - - N/A   Clear
10:28 AM 32.0 °F 20.8 °F 23.0 °F 69% 30.35 in 10.0 mi SE 17.3 mph 23.0 mph N/A   Clear
10:48 AM 32.0 °F 20.5 °F 23.0 °F 69% 30.35 in 10.0 mi ESE 18.4 mph 28.8 mph N/A   Clear
11:08 AM 32.0 °F 18.9 °F 23.0 °F 69% 30.35 in 10.0 mi ESE 24.2 mph - N/A   Clear
11:28 AM 32.0 °F 22.1 °F 23.0 °F 69% 30.35 in 10.0 mi SE 13.8 mph 18.4 mph N/A   Clear
11:48 AM 32.0 °F 27.5 °F 24.8 °F 75% 30.35 in 10.0 mi South 4.6 mph 23.0 mph N/A   Clear
12:08 PM 33.8 °F 28.6 °F 26.6 °F 75% 30.35 in 10.0 mi South 5.8 mph - N/A   Clear
12:28 PM 33.8 °F 23.9 °F 26.6 °F 75% 30.34 in 10.0 mi SW 15.0 mph 23.0 mph N/A   Clear
12:48 PM 33.8 °F 27.0 °F 24.8 °F 70% 30.33 in 10.0 mi South 8.1 mph 20.7 mph N/A   Scattered Clouds
1:08 PM 33.8 °F 27.7 °F 26.6 °F 75% 30.33 in 10.0 mi SSE 6.9 mph - N/A   Scattered Clouds
1:28 PM 35.6 °F 26.2 °F 26.6 °F 70% 30.31 in 10.0 mi SSE 15.0 mph 25.3 mph N/A   Scattered Clouds
1:48 PM 35.6 °F 25.5 °F 28.4 °F 75% 30.31 in 10.0 mi SSE 17.3 mph 27.6 mph N/A   Clear
2:08 PM 33.8 °F 23.2 °F 26.6 °F 75% 30.30 in 10.0 mi SSE 17.3 mph 24.2 mph N/A   Scattered Clouds
2:28 PM 35.6 °F 27.5 °F 26.6 °F 70% 30.30 in 10.0 mi SSE 11.5 mph 27.6 mph N/A   Scattered Clouds
2:48 PM 35.6 °F 28.0 °F 26.6 °F 70% 30.30 in 10.0 mi SSE 10.4 mph 23.0 mph N/A   Mostly Cloudy
3:08 PM 33.8 °F 24.3 °F 24.8 °F 70% 30.30 in 10.0 mi SW 13.8 mph 23.0 mph N/A   Overcast
3:28 PM 32.0 °F 26.4 °F 23.0 °F 69% 30.30 in 7.0 mi South 5.8 mph 18.4 mph N/A Snow Light Snow
3:48 PM 32.0 °F - 23.0 °F 69% 30.28 in 10.0 mi North - - N/A   Overcast
4:08 PM 32.0 °F 26.4 °F 23.0 °F 69% 30.29 in 7.0 mi South 5.8 mph - N/A Snow Light Snow
4:28 PM 32.0 °F 23.0 °F 23.0 °F 69% 30.28 in 10.0 mi SE 11.5 mph - N/A   Overcast
4:48 PM 33.8 °F 25.3 °F 24.8 °F 70% 30.28 in 10.0 mi South 11.5 mph 26.5 mph N/A   Overcast
5:08 PM 33.8 °F 21.6 °F 24.8 °F 70% 30.28 in 10.0 mi SE 23.0 mph 29.9 mph N/A   Overcast
5:28 PM 32.0 °F 25.6 °F 23.0 °F 69% 30.28 in 10.0 mi SSE 6.9 mph - N/A   Overcast
5:48 PM 32.0 °F 21.2 °F 23.0 °F 69% 30.28 in 10.0 mi SE 16.1 mph 19.6 mph N/A   Mostly Cloudy
6:08 PM 32.0 °F 19.5 °F 23.0 °F 69% 30.27 in 10.0 mi ESE 21.9 mph 31.1 mph N/A   Overcast
6:28 PM 32.0 °F 19.8 °F 23.0 °F 69% 30.28 in 10.0 mi SE 20.7 mph 25.3 mph N/A   Overcast
6:48 PM 32.0 °F 20.1 °F 23.0 °F 69% 30.28 in 10.0 mi SE 19.6 mph 25.3 mph N/A   Overcast
7:08 PM 32.0 °F - 23.0 °F 69% 30.27 in 10.0 mi North - - N/A   Overcast
7:28 PM 32.0 °F 22.5 °F 21.2 °F 64% 30.27 in 10.0 mi SE 12.7 mph - N/A Thunderstorm Thunderstorm
7:48 PM 32.0 °F 21.6 °F 21.2 °F 64% 30.27 in 10.0 mi SE 15.0 mph - N/A   Mostly Cloudy
8:08 PM 30.2 °F 18.5 °F 19.4 °F 64% 30.26 in 10.0 mi SE 17.3 mph - N/A   Overcast
8:28 PM 30.2 °F 18.9 °F 21.2 °F 69% 30.25 in 10.0 mi SE 16.1 mph - N/A   Mostly Cloudy
8:48 PM 30.2 °F 19.8 °F 19.4 °F 64% 30.25 in 10.0 mi SSE 13.8 mph - N/A   Mostly Cloudy
9:08 PM 30.2 °F 25.4 °F 21.2 °F 69% 30.25 in 7.0 mi South 4.6 mph - N/A Snow Light Snow
9:28 PM 28.4 °F 18.0 °F 19.4 °F 69% 30.25 in 1.2 mi SW 12.7 mph 24.2 mph N/A Snow Light Snow
9:48 PM 28.4 °F 17.0 °F 17.6 °F 64% 30.25 in 0.2 mi SW 15.0 mph 20.7 mph N/A Snow Light Snow
10:08 PM 28.4 °F 16.6 °F 17.6 °F 64% 30.25 in 0.2 mi WSW 16.1 mph 23.0 mph N/A Snow Light Snow
10:28 PM 26.6 °F 18.2 °F 17.6 °F 69% 30.23 in 5.0 mi West 8.1 mph - N/A Snow Light Snow
10:48 PM 26.6 °F 16.8 °F 17.6 °F 69% 30.22 in 10.0 mi WSW 10.4 mph - N/A Thunderstorm Clear
11:08 PM 28.4 °F 15.1 °F 17.6 °F 64% 30.20 in 10.0 mi SW 20.7 mph - N/A   Clear
11:28 PM 28.4 °F 20.4 °F 17.6 °F 64% 30.18 in 7.0 mi South 8.1 mph 31.1 mph N/A Thunderstorm Thunderstorm
11:48 PM 30.2 °F 21.3 °F 19.4 °F 64% 30.17 in 7.0 mi SSW 10.4 mph 41.4 mph N/A   Clear